This demonstration page uses our WeatherBlox Daily Observations layout. Learn more.

Hourly Observations for August 5, 2017

Temp ( °F °C ) Dew Point ( °F °C ) Humidity (%) Winds ( mph kmh ) Pressure ( in mb ) Visibility ( mi km ) Precip ( " mm )
12:15 am 00:15 Cloudy 79 26 72 22 79 79 Calm 29.88 1012 10 16.09344 0 0
12:35 am 00:35 Cloudy with Heavy Rain 77 25 72 22 83 83 N 3 6 29.88 1012 10 16.09344 0 0
12:55 am 00:55 Cloudy with Light Rain 77 25 73 23 89 89 Calm 29.88 1012 10 16.09344 0.01 0.254
1:15 am 01:15 Mostly Cloudy 75 24 73 23 94 94 Calm 29.88 1012 10 16.09344 0 0
1:35 am 01:35 Clear 73 23 73 23 100 100 Calm 29.88 1012 10 16.09344 0 0
1:55 am 01:55 Clear 73 23 73 23 100 100 Calm 29.85 1011 10 16.09344 0 0
2:15 am 02:15 Clear 73 23 73 23 100 100 Calm 29.85 1011 10 16.09344 0 0
2:35 am 02:35 Clear 73 23 73 23 100 100 Calm 29.88 1012 10 16.09344 0 0
2:55 am 02:55 Partly Cloudy 73 23 72 22 94 94 NNW 10 17 29.88 1012 10 16.09344 0 0
3:15 am 03:15 Partly Cloudy 73 23 72 22 94 94 N 6 9 29.88 1012 10 16.09344 0 0
3:35 am 03:35 Partly Cloudy 73 23 72 22 94 94 N 5 7 29.88 1012 10 16.09344 0 0
3:55 am 03:55 Partly Cloudy 72 22 72 22 100 100 N 5 7 29.88 1012 10 16.09344 0 0
4:15 am 04:15 Clear 72 22 72 22 100 100 Calm 29.88 1012 10 16.09344 0 0
4:35 am 04:35 Clear 72 22 70 21 94 94 NNW 7 11 29.88 1012 10 16.09344 0 0
4:55 am 04:55 Clear 72 22 70 21 94 94 NW 7 11 29.88 1012 10 16.09344 0 0
5:15 am 05:15 Partly Cloudy 72 22 70 21 94 94 Calm 29.91 1013 10 16.09344 0 0
5:35 am 05:35 Partly Cloudy 72 22 70 21 94 94 NW 8 13 29.91 1013 10 16.09344 0 0
5:55 am 05:55 Mostly Cloudy 72 22 70 21 94 94 NW 5 7 29.91 1013 10 16.09344 0 0
6:15 am 06:15 Mostly Cloudy 72 22 68 20 88 88 NW 3 6 29.94 1014 10 16.09344 0 0
6:35 am 06:35 Sunny 70 21 68 20 94 94 Calm 29.94 1014 10 16.09344 0 0
6:55 am 06:55 Partly Cloudy 72 22 66 19 83 83 NNW 3 6 29.94 1014 10 16.09344 0 0
7:15 am 07:15 Partly Cloudy 70 21 66 19 88 88 NNW 8 13 29.97 1015 10 16.09344 0 0
7:35 am 07:35 Mostly Cloudy 70 21 64 18 83 83 NNW 12 19 29.97 1015 10 16.09344 0 0
7:55 am 07:55 Mostly Cloudy 72 22 64 18 78 78 NNW 10 17 30 1016 10 16.09344 0 0
8:15 am 08:15 Mostly Cloudy 70 21 61 16 73 73 NNW 18 30 30 1016 10 16.09344 0 0
8:35 am 08:35 Mostly Cloudy 70 21 61 16 73 73 NW 16 26 30 1016 10 16.09344 0 0
8:55 am 08:55 Partly Cloudy 70 21 59 15 69 69 NNW 23 37 30.03 1017 10 16.09344 0 0
9:15 am 09:15 Sunny 70 21 59 15 69 69 NNW 23 37 30.03 1017 10 16.09344 0 0
9:35 am 09:35 Sunny 72 22 57 14 61 61 NW 16 26 30.03 1017 10 16.09344 0 0
9:55 am 09:55 Sunny 72 22 57 14 61 61 NW 16 26 30.03 1017 10 16.09344 0 0
10:15 am 10:15 Sunny 73 23 55 13 53 53 NW 16 26 30.06 1018 10 16.09344 0 0
10:35 am 10:35 Mostly Cloudy 73 23 57 14 57 57 NW 16 26 30.06 1018 10 16.09344 0 0
10:55 am 10:55 Mostly Cloudy 73 23 59 15 61 61 WNW 15 24 30.06 1018 10 16.09344 0 0
11:15 am 11:15 Mostly Cloudy 73 23 59 15 61 61 WNW 14 22 30.06 1018 10 16.09344 0 0
11:35 am 11:35 Mostly Cloudy 73 23 59 15 61 61 NW 12 19 30.06 1018 10 16.09344 0 0
11:55 am 11:55 Mostly Cloudy 73 23 59 15 61 61 NW 13 20 30.03 1017 10 16.09344 0 0
12:15 pm 12:15 Mostly Cloudy 73 23 59 15 61 61 NNW 12 19 30.03 1017 10 16.09344 0 0
12:35 pm 12:35 Mostly Cloudy 73 23 55 13 53 53 NNW 18 30 30.03 1017 10 16.09344 0 0
12:55 pm 12:55 Cloudy 73 23 57 14 57 57 NW 16 26 30.03 1017 10 16.09344 0 0
1:15 pm 13:15 Mostly Cloudy 77 25 59 15 54 54 NNW 15 24 30.03 1017 10 16.09344 0 0
1:35 pm 13:35 Partly Cloudy 77 25 59 15 54 54 NW 17 28 30.03 1017 10 16.09344 0 0
1:55 pm 13:55 Partly Cloudy 77 25 59 15 54 54 NW 14 22 30 1016 10 16.09344 0 0
2:15 pm 14:15 Partly Cloudy 77 25 59 15 54 54 NW 12 19 30 1016 10 16.09344 0 0
2:35 pm 14:35 Partly Cloudy 77 25 57 14 51 51 NW 15 24 30 1016 10 16.09344 0 0
2:55 pm 14:55 Partly Cloudy 79 26 59 15 51 51 WNW 18 30 30 1016 10 16.09344 0 0
3:15 pm 15:15 Mostly Cloudy 79 26 59 15 51 51 NW 14 22 30 1016 10 16.09344 0 0
3:35 pm 15:35 Mostly Cloudy 79 26 59 15 51 51 NW 16 26 30 1016 10 16.09344 0 0
3:55 pm 15:55 Partly Cloudy 79 26 59 15 51 51 NW 15 24 30 1016 10 16.09344 0 0
4:15 pm 16:15 Mostly Cloudy 79 26 57 14 48 48 NNW 12 19 30 1016 10 16.09344 0 0
4:35 pm 16:35 Partly Cloudy 81 27 59 15 48 48 WNW 15 24 30 1016 10 16.09344 0 0
4:55 pm 16:55 Partly Cloudy 77 25 55 13 47 47 WNW 17 28 30.03 1017 10 16.09344 0 0
5:15 pm 17:15 Mostly Cloudy 77 25 57 14 51 51 NNW 17 28 30.03 1017 10 16.09344 0 0
5:35 pm 17:35 Partly Cloudy 79 26 57 14 48 48 NW 16 26 30.03 1017 10 16.09344 0 0
5:55 pm 17:55 Partly Cloudy 77 25 57 14 51 51 NW 15 24 30.03 1017 10 16.09344 0 0
6:15 pm 18:15 Sunny 77 25 57 14 51 51 NW 17 28 30.03 1017 10 16.09344 0 0
6:35 pm 18:35 Sunny 77 25 55 13 47 47 NNW 13 20 30.03 1017 10 16.09344 0 0
6:55 pm 18:55 Sunny 77 25 59 15 54 54 NW 9 15 30.03 1017 10 16.09344 0 0
7:15 pm 19:15 Sunny 77 25 59 15 54 54 WNW 6 9 30.03 1017 10 16.09344 0 0
7:35 pm 19:35 Sunny 73 23 59 15 61 61 NW 7 11 30.06 1018 10 16.09344 0 0
7:55 pm 19:55 Sunny 73 23 59 15 61 61 WNW 6 9 30.06 1018 10 16.09344 0 0
8:15 pm 20:15 Sunny 72 22 59 15 65 65 WNW 6 9 30.06 1018 10 16.09344 0 0
8:35 pm 20:35 Clear 72 22 59 15 65 65 WNW 5 7 30.06 1018 10 16.09344 0 0
8:55 pm 20:55 Clear 70 21 59 15 69 69 WNW 3 6 30.06 1018 10 16.09344 0 0
9:15 pm 21:15 Clear 68 20 59 15 73 73 NW 5 7 30.06 1018 10 16.09344 0 0
9:35 pm 21:35 Clear 66 19 61 16 83 83 WNW 3 6 30.06 1018 10 16.09344 0 0
9:55 pm 21:55 Clear 66 19 61 16 83 83 NW 6 9 30.06 1018 10 16.09344 0 0
10:15 pm 22:15 Clear 66 19 61 16 83 83 WNW 5 7 30.09 1019 10 16.09344 0 0
10:35 pm 22:35 Clear 66 19 59 15 78 78 SSW 6 9 30.09 1019 10 16.09344 0 0
10:55 pm 22:55 Clear 68 20 59 15 73 73 SSW 5 7 30.09 1019 10 16.09344 0 0
11:15 pm 23:15 Clear 68 20 59 15 73 73 SSW 7 11 30.09 1019 10 16.09344 0 0
11:35 pm 23:35 Clear 68 20 59 15 73 73 SSW 7 11 30.09 1019 10 16.09344 0 0
11:55 pm 23:55 Clear 68 20 59 15 73 73 W 7 11 30.09 1019 10 16.09344 0 0

Powered by AerisWeather